Location: Newark
(40.4333°N, 3.7000°W)
Time: 16:02:08
(UTC+00:00)

N. Korean satellite - Visible Passes

Search period start: 22 October 2019 00:00
Search period end: 01 November 2019 00:00
Orbit: 455 x 508 km, 97.2° (Epoch: 21 October)

Date Brightness Start Highest point End Pass type
(mag) Time Alt. Az. Time Alt. Az. Time Alt. Az.
22 Oct 9.1 05:33:45 10° NE 05:36:54 27° E 05:40:04 10° SSE visible
23 Oct 10.2 05:09:33 10° ENE 05:11:27 14° E 05:13:21 10° ESE visible
24 Oct 10.2 18:26:21 10° WSW 18:28:00 13° W 18:29:40 10° WNW visible
25 Oct 7.9 05:50:52 10° NNE 05:54:25 46° E 05:57:58 10° S visible
25 Oct 9.0 17:59:33 10° SSW 18:02:31 27° W 18:05:31 10° NW visible
26 Oct 9.5 05:26:05 10° NE 05:29:01 22° E 05:31:57 10° SSE visible
27 Oct 10.4 05:02:27 10° ENE 05:03:31 11° E 05:04:36 10° ESE visible
28 Oct 6.8 06:08:10 10° NNE 06:11:52 82° E 06:15:34 10° S visible
28 Oct 9.9 18:17:47 10° SW 18:20:02 16° W 18:22:17 10° NW visible
29 Oct 8.4 05:43:04 10° NNE 05:46:32 37° E 05:49:58 10° SSE visible
29 Oct 8.5 17:51:24 10° SSW 17:54:33 34° W 17:57:47 10° NNW visible
30 Oct 9.8 05:18:27 10° NE 05:21:05 18° E 05:23:42 10° SE visible
